DW6866 Puyallup WA US current weather conditions

sailwx.info

Wind from 188 at 2 knots gusting 9

Air temperature 18.3° C
Dewpoint 12.3° C

Last reported at 2020-Aug-06 18:01 UTC.
Time now 2020-Aug-06 19:16 UTC

Location: N 47°09' W 122°20'.
View on Google Maps.

See reports from other nearby stations

  
Tides and Currents Weather Stations Pressure Air Temp Water Temp Dewpoint Dewpoint Depression Visibility Wind Speed Wind Dir Waves Ship Positions
date/time (UTC)wind fromknots sea level pressurealtimeterstation pressurevisibilityair tempwater tempwave heightnotes
2020-Aug-06 18:01 188 2 gusting 9 18.3
2020-Aug-06 17:31 196 2 gusting 8 17.2
2020-Aug-06 16:46 190 1 gusting 6 15.6
2020-Aug-06 16:31 257 1 gusting 6 15.0
2020-Aug-06 16:01 196 2 gusting 6 15.0
2020-Aug-06 15:46 180 1 gusting 6 15.0
2020-Aug-06 15:31 148 1 gusting 6 15.0
2020-Aug-06 15:16 149 2 gusting 8 14.4
2020-Aug-06 15:01 206 1 gusting 6 14.4
2020-Aug-06 14:31 143 0 gusting 5 13.9
2020-Aug-06 14:16 252 14.4
2020-Aug-06 14:01 224 0 gusting 2 15.0
2020-Aug-06 13:46 215 0 gusting 3 15.6
2020-Aug-06 13:16 281 0 gusting 2 15.0
2020-Aug-06 12:46 198 0 gusting 2 15.0
2020-Aug-06 12:16 214 15.0
2020-Aug-06 12:01 159 0 gusting 4 15.0
2020-Aug-06 11:46 127 15.0
2020-Aug-06 11:31 231 15.6
2020-Aug-06 11:16 270 0 gusting 6 15.6
2020-Aug-06 10:16 240 0 gusting 4 15.6
2020-Aug-06 10:01 174 15.6
2020-Aug-06 09:01 126 15.0
2020-Aug-06 08:46 182 0 gusting 1 15.0
2020-Aug-06 08:31 167 1 gusting 3 15.0
2020-Aug-06 07:46 155 14.4
2020-Aug-06 07:31 139 14.4
2020-Aug-06 07:16 172 15.0
2020-Aug-06 07:01 221 15.0
2020-Aug-06 06:46 180 15.0
2020-Aug-06 06:31 234 15.6
2020-Aug-06 06:16 135 0 gusting 3 15.6
2020-Aug-06 06:01 237 15.6
2020-Aug-06 05:31 248 16.1
2020-Aug-06 05:01 178 0 gusting 3 16.7
2020-Aug-06 04:46 265 0 gusting 3 16.7
2020-Aug-06 04:32 266 0 gusting 3 17.2
2020-Aug-06 04:16 268 0 gusting 4 17.8
2020-Aug-06 03:46 275 0 gusting 4 18.9
2020-Aug-06 03:31 259 0 gusting 3 20.0
2020-Aug-06 03:01 138 0 gusting 6 21.7
2020-Aug-06 02:46 270 0 gusting 5 22.8
2020-Aug-06 02:31 287 0 gusting 4 23.3
2020-Aug-06 02:16 281 24.4
2020-Aug-06 02:01 244 0 gusting 5 25.0
2020-Aug-06 01:46 356 0 gusting 9 25.0
2020-Aug-06 01:16 238 2 gusting 6 25.0
2020-Aug-06 01:01 297 0 gusting 8 25.6
2020-Aug-06 00:31 021 2 gusting 6 26.1
2020-Aug-06 00:01 268 0 gusting 5 26.1
2020-Aug-05 23:31 013 2 gusting 11 25.6
2020-Aug-05 23:16 358 3 gusting 7 25.6
2020-Aug-05 23:01 269 2 gusting 6 25.6
2020-Aug-05 22:31 302 4 gusting 8 25.6
2020-Aug-05 22:16 229 2 gusting 9 26.1
2020-Aug-05 21:16 213 1 gusting 5 25.6
2020-Aug-05 21:01 243 1 gusting 7 25.0
2020-Aug-05 20:46 009 3 gusting 7 25.0
2020-Aug-05 20:16 203 25.0
2020-Aug-05 19:46 310 2 gusting 8 23.9
2020-Aug-05 19:31 012 2 gusting 6 23.3
2020-Aug-05 18:46 143 0 gusting 3 22.8
2020-Aug-05 17:46 018 0 gusting 3 21.7
2020-Aug-05 17:01 224 1 gusting 4 20.6
2020-Aug-05 16:46 245 0 gusting 5 19.4
2020-Aug-05 16:31 229 18.9
2020-Aug-05 15:46 262 17.8
2020-Aug-05 14:46 236 15.0
2020-Aug-05 14:17 225 13.9
2020-Aug-05 14:01 039 13.3
2020-Aug-05 13:31 039 12.8
2020-Aug-05 13:16 039 12.8
2020-Aug-05 13:01 039 12.8
2020-Aug-05 12:46 039 12.8
2020-Aug-05 12:16 039 12.8
2020-Aug-05 11:46 037 13.3
2020-Aug-05 11:16 037 13.3
2020-Aug-05 11:01 037 13.3
2020-Aug-05 10:46 037 13.3
2020-Aug-05 10:16 037 13.9
2020-Aug-05 10:01 037 14.4
2020-Aug-05 09:46 037 14.4
2020-Aug-05 09:16 037 14.4
2020-Aug-05 09:01 037 15.0
2020-Aug-05 08:46 037 15.0
2020-Aug-05 08:32 037 15.0
2020-Aug-05 08:16 037 15.6
2020-Aug-05 07:46 037 15.6
2020-Aug-05 06:01 037 18.3
2020-Aug-05 05:46 037 18.3
2020-Aug-05 05:31 037 18.9
2020-Aug-05 05:16 037 20.0
2020-Aug-05 05:01 004 0 gusting 2 20.6
2020-Aug-05 03:46 005 0 gusting 2 22.2
2020-Aug-05 03:16 321 0 gusting 3 23.3
2020-Aug-05 03:01 009 1 gusting 3 23.9
2020-Aug-05 02:46 338 1 gusting 4 24.4
2020-Aug-05 02:01 011 0 gusting 6 25.6
2020-Aug-05 01:46 004 3 gusting 7 25.6
2020-Aug-05 01:31 010 2 gusting 6 25.6
2020-Aug-05 01:16 354 2 gusting 6 25.6
2020-Aug-05 01:01 015 3 gusting 7 26.1
2020-Aug-05 00:16 036 0 gusting 6 26.1
2020-Aug-05 00:01 037 2 gusting 5 26.1
2020-Aug-04 23:31 327 2 gusting 10 25.6
2020-Aug-04 22:46 004 4 gusting 6 25.6
2020-Aug-04 22:31 340 3 gusting 8 25.6
2020-Aug-04 22:16 023 4 gusting 9 25.0
2020-Aug-04 21:31 038 5 gusting 11 24.4
2020-Aug-04 21:16 013 5 gusting 10 24.4
2020-Aug-04 21:01 333 5 gusting 8 24.4
2020-Aug-04 20:46 028 4 gusting 7 24.4
2020-Aug-04 20:31 017 2 gusting 10 23.9
2020-Aug-04 20:16 356 2 gusting 9 23.9
2020-Aug-04 20:01 013 3 gusting 8 23.9
2020-Aug-04 19:46 341 4 gusting 7 23.3
2020-Aug-04 19:31 008 3 gusting 6 23.3
2020-Aug-04 19:16 096 4 gusting 6 22.8